| time (UTC) | temp F | wind direction | speed MPH | gust MPH | rain 1hr in | rain 24hr in | rain mn in | humidity % | barometer mb |
| 20260503024833 | 82 | 281 | 0.0 | 2.0 | 0.00 | 0.00 | 0.00 | 76 | 1012.9 |
| 20260503023822 | 82 | 242 | 0.0 | 4.0 | 0.00 | 0.00 | 0.00 | 75 | 1013.0 |
| 20260503023315 | 82 | 254 | 0.0 | 4.0 | 0.00 | 0.00 | 0.00 | 74 | 1013.0 |
| 20260503022307 | 82 | 294 | 0.0 | 6.0 | 0.00 | 0.00 | 0.00 | 73 | 1012.9 |
| 20260503021305 | 83 | 323 | 0.0 | 4.0 | 0.00 | 0.00 | 0.00 | 73 | 1012.8 |
| 20260503020302 | 83 | 332 | 0.0 | 4.0 | 0.00 | 0.00 | 0.00 | 72 | 1012.7 |
| 20260503015801 | 83 | 296 | 0.0 | 4.0 | 0.00 | 0.00 | 0.00 | 71 | 1012.7 |
| 20260503015305 | 83 | 281 | 0.0 | 2.0 | 0.00 | 0.00 | 0.00 | 71 | 1012.7 |
| 20260503014801 | 83 | 278 | 0.0 | 2.0 | 0.00 | 0.00 | 0.00 | 70 | 1012.7 |
| 20260503014300 | 83 | 260 | 0.0 | 4.0 | 0.00 | 0.00 | 0.00 | 69 | 1012.7 |
| 20260503013259 | 84 | 274 | 1.0 | 5.0 | 0.00 | 0.00 | 0.00 | 68 | 1012.5 |
| 20260503012300 | 84 | 298 | 1.0 | 4.0 | 0.00 | 0.00 | 0.00 | 66 | 1012.5 |
| 20260503010255 | 85 | 268 | 1.0 | 9.0 | 0.00 | 0.00 | 0.00 | 63 | 1012.0 |
| 20260503005754 | 85 | 85 | 1.0 | 9.0 | 0.00 | 0.00 | 0.00 | 62 | 1012.0 |
| 20260503005252 | 85 | 334 | 1.0 | 5.0 | 0.00 | 0.00 | 0.00 | 62 | 1012.0 |
| 20260503004752 | 85 | 268 | 1.0 | 7.0 | 0.00 | 0.00 | 0.00 | 61 | 1011.9 |
| 20260503004249 | 85 | 320 | 1.0 | 7.0 | 0.00 | 0.00 | 0.00 | 61 | 1011.9 |
| 20260503003749 | 85 | 310 | 1.0 | 6.0 | 0.00 | 0.00 | 0.00 | 61 | 1011.9 |
| 20260503003248 | 85 | 216 | 0.0 | 4.0 | 0.00 | 0.00 | 0.00 | 60 | 1011.7 |
| 20260503002747 | 85 | 276 | 0.0 | 3.0 | 0.00 | 0.00 | 0.00 | 59 | 1011.7 |
| 20260503002247 | 85 | 197 | 0.0 | 2.0 | 0.00 | 0.00 | 0.00 | 59 | 1011.6 |
| 20260503001748 | 86 | 310 | 0.0 | 2.0 | 0.00 | 0.00 | 0.00 | 59 | 1011.4 |
| 20260503001248 | 86 | 230 | 0.0 | 2.0 | 0.00 | 0.00 | 0.00 | 58 | 1011.4 |
| 20260503000748 | 86 | 203 | 0.0 | 5.0 | 0.00 | 0.00 | 0.00 | 58 | 1011.4 |
| 20260503000248 | 86 | 229 | 0.0 | 5.0 | 0.00 | 0.00 | 0.00 | 57 | 1011.3 |
| 20260502235748 | 87 | 269 | 0.0 | 7.0 | 0.00 | 0.00 | 0.00 | 57 | 1011.2 |
| 20260502235248 | 87 | 208 | 1.0 | 7.0 | 0.00 | 0.00 | 0.00 | 56 | 1011.0 |
| 20260502234748 | 87 | 150 | 0.0 | 3.0 | 0.00 | 0.00 | 0.00 | 55 | 1011.0 |
| 20260502234248 | 87 | 148 | 0.0 | 2.0 | 0.00 | 0.00 | 0.00 | 55 | 1010.9 |
| 20260502233748 | 87 | 181 | 1.0 | 7.0 | 0.00 | 0.00 | 0.00 | 54 | 1010.7 |
| 20260502232748 | 88 | 162 | 1.0 | 4.0 | 0.00 | 0.00 | 0.00 | 53 | 1010.5 |
| 20260502232247 | 88 | 176 | 0.0 | 4.0 | 0.00 | 0.00 | 0.00 | 54 | 1010.5 |
| 20260502231747 | 89 | 252 | 1.0 | 6.0 | 0.00 | 0.00 | 0.00 | 54 | 1010.4 |
| 20260502231249 | 89 | 226 | 1.0 | 6.0 | 0.00 | 0.00 | 0.00 | 54 | 1010.3 |
| 20260502230750 | 90 | 185 | 1.0 | 7.0 | 0.00 | 0.00 | 0.00 | 54 | 1010.1 |
| 20260502230249 | 90 | 214 | 2.0 | 8.0 | 0.00 | 0.00 | 0.00 | 53 | 1010.1 |
| 20260502225248 | 91 | 265 | 3.0 | 11.0 | 0.00 | 0.00 | 0.00 | 55 | 1009.9 |
| 20260502224746 | 91 | 155 | 2.0 | 11.0 | 0.00 | 0.00 | 0.00 | 53 | 1010.0 |
| 20260502224246 | 92 | 179 | 1.0 | 4.0 | 0.00 | 0.00 | 0.00 | 50 | 1009.9 |
| 20260502223745 | 92 | 170 | 1.0 | 7.0 | 0.00 | 0.00 | 0.00 | 50 | 1009.8 |
| 20260502223243 | 92 | 150 | 1.0 | 7.0 | 0.00 | 0.00 | 0.00 | 49 | 1009.9 |
| 20260502222743 | 92 | 191 | 1.0 | 6.0 | 0.00 | 0.00 | 0.00 | 50 | 1009.9 |
| 20260502222237 | 92 | 171 | 1.0 | 6.0 | 0.00 | 0.00 | 0.00 | 51 | 1009.9 |
| 20260502221737 | 91 | 207 | 1.0 | 6.0 | 0.00 | 0.00 | 0.00 | 51 | 1009.8 |
| 20260502221236 | 91 | 282 | 3.0 | 10.0 | 0.00 | 0.00 | 0.00 | 53 | 1009.9 |
| 20260502220737 | 91 | 181 | 2.0 | 10.0 | 0.00 | 0.00 | 0.00 | 58 | 1009.8 |
| 20260502220235 | 92 | 178 | 1.0 | 4.0 | 0.00 | 0.00 | 0.00 | 50 | 1009.8 |
| 20260502215736 | 92 | 153 | 2.0 | 7.0 | 0.00 | 0.00 | 0.00 | 56 | 1009.7 |
| 20260502215234 | 91 | 219 | 2.0 | 8.0 | 0.00 | 0.00 | 0.00 | 52 | 1009.8 |
| 20260502214731 | 91 | 160 | 3.0 | 13.0 | 0.00 | 0.00 | 0.00 | 59 | 1009.6 |
| 20260502214230 | 91 | 217 | 3.0 | 13.0 | 0.00 | 0.00 | 0.00 | 62 | 1009.7 |
| 20260502213729 | 91 | 168 | 3.0 | 11.0 | 0.00 | 0.00 | 0.00 | 54 | 1009.5 |
| 20260502213229 | 91 | 233 | 5.0 | 13.0 | 0.00 | 0.00 | 0.00 | 62 | 1009.4 |
| 20260502212729 | 91 | 96 | 4.0 | 13.0 | 0.00 | 0.00 | 0.00 | 64 | 1009.4 |
| 20260502212230 | 92 | 183 | 4.0 | 11.0 | 0.00 | 0.00 | 0.00 | 62 | 1009.4 |
| 20260502211729 | 93 | 281 | 3.0 | 9.0 | 0.00 | 0.00 | 0.00 | 58 | 1009.4 |
| 20260502211229 | 93 | 162 | 3.0 | 8.0 | 0.00 | 0.00 | 0.00 | 47 | 1009.3 |
| 20260502210729 | 92 | 211 | 4.0 | 8.0 | 0.00 | 0.00 | 0.00 | 51 | 1009.3 |
| 20260502210230 | 93 | 123 | 2.0 | 7.0 | 0.00 | 0.00 | 0.00 | 55 | 1009.3 |
| 20260502205728 | 94 | 237 | 2.0 | 11.0 | 0.00 | 0.00 | 0.00 | 50 | 1009.3 |
| 20260502205229 | 93 | 357 | 4.0 | 11.0 | 0.00 | 0.00 | 0.00 | 55 | 1009.3 |
| 20260502204723 | 93 | 127 | 5.0 | 15.0 | 0.00 | 0.00 | 0.00 | 53 | 1009.3 |
| 20260502204217 | 94 | 148 | 4.0 | 15.0 | 0.00 | 0.00 | 0.00 | 54 | 1009.3 |
| 20260502203711 | 96 | 214 | 2.0 | 10.0 | 0.00 | 0.00 | 0.00 | 40 | 1009.3 |
| 20260502203205 | 96 | 173 | 2.0 | 10.0 | 0.00 | 0.00 | 0.00 | 41 | 1009.3 |
| 20260502202703 | 95 | 135 | 3.0 | 10.0 | 0.00 | 0.00 | 0.00 | 43 | 1009.3 |
| 20260502202204 | 96 | 145 | 3.0 | 10.0 | 0.00 | 0.00 | 0.00 | 43 | 1009.5 |
| 20260502201704 | 95 | 249 | 2.0 | 9.0 | 0.00 | 0.00 | 0.00 | 41 | 1009.4 |
| 20260502201203 | 96 | 162 | 2.0 | 8.0 | 0.00 | 0.00 | 0.00 | 43 | 1009.6 |
| 20260502200703 | 96 | 126 | 2.0 | 8.0 | 0.00 | 0.00 | 0.00 | 42 | 1009.7 |
| 20260502195703 | 95 | 273 | 3.0 | 13.0 | 0.00 | 0.00 | 0.00 | 43 | 1009.8 |
| 20260502195203 | 94 | 280 | 4.0 | 14.0 | 0.00 | 0.00 | 0.00 | 46 | 1009.9 |
| 20260502194703 | 95 | 215 | 3.0 | 14.0 | 0.00 | 0.00 | 0.00 | 44 | 1010.0 |
| 20260502194202 | 96 | 89 | 2.0 | 7.0 | 0.00 | 0.00 | 0.00 | 46 | 1009.9 |
| 20260502193702 | 95 | 221 | 1.0 | 8.0 | 0.00 | 0.00 | 0.00 | 45 | 1010.0 |
| 20260502193200 | 96 | 211 | 1.0 | 8.0 | 0.00 | 0.00 | 0.00 | 45 | 1010.1 |
| 20260502192702 | 95 | 236 | 2.0 | 9.0 | 0.00 | 0.00 | 0.00 | 46 | 1010.2 |
| 20260502192201 | 95 | 293 | 2.0 | 9.0 | 0.00 | 0.00 | 0.00 | 46 | 1010.1 |
| 20260502191701 | 95 | 159 | 1.0 | 7.0 | 0.00 | 0.00 | 0.00 | 47 | 1010.2 |
| 20260502191201 | 94 | 245 | 1.0 | 7.0 | 0.00 | 0.00 | 0.00 | 48 | 1010.3 |
| 20260502190701 | 94 | 109 | 1.0 | 9.0 | 0.00 | 0.00 | 0.00 | 48 | 1010.3 |
| 20260502190201 | 95 | 240 | 1.0 | 9.0 | 0.00 | 0.00 | 0.00 | 48 | 1010.3 |
| 20260502185202 | 93 | 327 | 2.0 | 8.0 | 0.00 | 0.00 | 0.00 | 50 | 1010.3 |
| 20260502184702 | 93 | 176 | 3.0 | 9.0 | 0.00 | 0.00 | 0.00 | 50 | 1010.4 |
| 20260502184200 | 92 | 250 | 4.0 | 11.0 | 0.00 | 0.00 | 0.00 | 51 | 1010.3 |
| 20260502183701 | 92 | 154 | 4.0 | 15.0 | 0.00 | 0.00 | 0.00 | 54 | 1010.4 |
| 20260502183201 | 92 | 222 | 3.0 | 15.0 | 0.00 | 0.00 | 0.00 | 51 | 1010.5 |
| 20260502182701 | 91 | 113 | 4.0 | 12.0 | 0.00 | 0.00 | 0.00 | 54 | 1010.4 |
| 20260502182200 | 91 | 190 | 3.0 | 12.0 | 0.00 | 0.00 | 0.00 | 63 | 1010.7 |
| 20260502181201 | 91 | 111 | 4.0 | 16.0 | 0.00 | 0.00 | 0.00 | 62 | 1010.6 |
| 20260502180701 | 91 | 165 | 3.0 | 10.0 | 0.00 | 0.00 | 0.00 | 64 | 1010.6 |
| 20260502180201 | 91 | 197 | 3.0 | 8.0 | 0.00 | 0.00 | 0.00 | 63 | 1010.7 |
| 20260502164157 | 90 | 199 | 4.0 | 11.0 | 0.00 | 0.00 | 0.00 | 65 | 1011.3 |
| 20260502163657 | 90 | 106 | 5.0 | 13.0 | 0.00 | 0.00 | 0.00 | 67 | 1011.2 |
| 20260502163155 | 89 | 120 | 6.0 | 16.0 | 0.00 | 0.00 | 0.00 | 69 | 1011.2 |
| 20260502162155 | 89 | 220 | 6.0 | 16.0 | 0.00 | 0.00 | 0.00 | 68 | 1011.5 |
| 20260502161655 | 89 | 212 | 5.0 | 16.0 | 0.00 | 0.00 | 0.00 | 68 | 1011.4 |
| 20260502161155 | 89 | 194 | 4.0 | 11.0 | 0.00 | 0.00 | 0.00 | 69 | 1011.5 |
| 20260502160655 | 88 | 226 | 5.0 | 16.0 | 0.00 | 0.00 | 0.00 | 69 | 1011.4 |
| 20260502152151 | 88 | 206 | 5.0 | 14.0 | 0.00 | 0.00 | 0.00 | 73 | 1011.6 |
| 20260502151651 | 88 | 150 | 5.0 | 14.0 | 0.00 | 0.00 | 0.00 | 72 | 1011.6 |
| 20260502150147 | 88 | 217 | 6.0 | 14.0 | 0.00 | 0.00 | 0.00 | 73 | 1011.7 |
| 20260502130629 | 84 | 176 | 3.0 | 10.0 | 0.00 | 0.00 | 0.00 | 81 | 1011.3 |
| 20260502130131 | 84 | 201 | 4.0 | 11.0 | 0.00 | 0.00 | 0.00 | 81 | 1011.3 |
| 20260502123129 | 83 | 159 | 4.0 | 9.0 | 0.00 | 0.00 | 0.00 | 82 | 1011.2 |
| 20260502122628 | 83 | 150 | 4.0 | 9.0 | 0.00 | 0.00 | 0.00 | 82 | 1011.3 |
| 20260502122129 | 82 | 192 | 2.0 | 7.0 | 0.00 | 0.00 | 0.00 | 83 | 1011.2 |
| 20260502121629 | 82 | 180 | 1.0 | 4.0 | 0.00 | 0.00 | 0.00 | 84 | 1011.2 |
| 20260502121130 | 82 | 179 | 2.0 | 6.0 | 0.00 | 0.00 | 0.00 | 84 | 1011.2 |
| 20260502120635 | 82 | 173 | 2.0 | 8.0 | 0.00 | 0.00 | 0.00 | 84 | 1011.0 |
| 20260502120130 | 82 | 186 | 3.0 | 11.0 | 0.00 | 0.00 | 0.00 | 84 | 1011.1 |
| 20260502115629 | 82 | 169 | 2.0 | 11.0 | 0.00 | 0.00 | 0.00 | 83 | 1011.0 |
| 20260502115130 | 81 | 205 | 1.0 | 8.0 | 0.00 | 0.00 | 0.00 | 84 | 1011.1 |
| 20260502114629 | 81 | 185 | 2.0 | 8.0 | 0.00 | 0.00 | 0.00 | 84 | 1011.1 |
| 20260502114130 | 81 | 180 | 1.0 | 6.0 | 0.00 | 0.00 | 0.00 | 84 | 1011.1 |
| 20260502113630 | 81 | 176 | 1.0 | 8.0 | 0.00 | 0.00 | 0.00 | 84 | 1011.1 |
| 20260502113130 | 81 | 167 | 2.0 | 8.0 | 0.00 | 0.00 | 0.00 | 84 | 1011.0 |
| 20260502112129 | 81 | 147 | 0.0 | 4.0 | 0.00 | 0.00 | 0.00 | 85 | 1011.0 |
| 20260502111130 | 81 | 168 | 2.0 | 9.0 | 0.00 | 0.00 | 0.00 | 85 | 1011.0 |
| 20260502110629 | 81 | 118 | 2.0 | 5.0 | 0.00 | 0.00 | 0.00 | 85 | 1011.0 |
| 20260502110129 | 81 | 177 | 2.0 | 8.0 | 0.00 | 0.00 | 0.00 | 84 | 1011.0 |
| 20260502105629 | 81 | 178 | 2.0 | 8.0 | 0.00 | 0.00 | 0.00 | 84 | 1011.0 |
| 20260502105130 | 81 | 75 | 2.0 | 7.0 | 0.00 | 0.00 | 0.00 | 84 | 1010.9 |
| 20260502104630 | 81 | 252 | 2.0 | 8.0 | 0.00 | 0.00 | 0.00 | 84 | 1010.8 |
| 20260502104131 | 81 | 193 | 2.0 | 8.0 | 0.00 | 0.00 | 0.00 | 84 | 1010.8 |
| 20260502103628 | 81 | 173 | 2.0 | 8.0 | 0.00 | 0.00 | 0.00 | 83 | 1010.9 |
| 20260502103121 | 81 | 184 | 2.0 | 8.0 | 0.00 | 0.00 | 0.00 | 83 | 1011.0 |
| 20260502102615 | 81 | 226 | 2.0 | 7.0 | 0.00 | 0.00 | 0.00 | 84 | 1011.0 |
| 20260502102110 | 81 | 150 | 1.0 | 7.0 | 0.00 | 0.00 | 0.00 | 84 | 1011.0 |
| 20260502101609 | 81 | 184 | 2.0 | 7.0 | 0.00 | 0.00 | 0.00 | 84 | 1010.9 |
| 20260502101110 | 81 | 163 | 2.0 | 7.0 | 0.00 | 0.00 | 0.00 | 84 | 1011.0 |
| 20260502100607 | 81 | 157 | 2.0 | 10.0 | 0.00 | 0.00 | 0.00 | 84 | 1010.8 |
| 20260502100106 | 81 | 226 | 2.0 | 11.0 | 0.00 | 0.00 | 0.00 | 84 | 1010.8 |
| 20260502091102 | 80 | 160 | 2.0 | 9.0 | 0.00 | 0.00 | 0.00 | 84 | 1010.7 |
| 20260502090602 | 80 | 102 | 3.0 | 9.0 | 0.00 | 0.00 | 0.00 | 84 | 1010.7 |
| 20260502070548 | 80 | 167 | 1.0 | 4.0 | 0.00 | 0.00 | 0.00 | 84 | 1010.8 |
| 20260502070046 | 80 | 145 | 1.0 | 5.0 | 0.00 | 0.00 | 0.00 | 84 | 1010.7 |
| 20260502065546 | 80 | 202 | 1.0 | 5.0 | 0.00 | 0.00 | 0.00 | 84 | 1010.7 |
| 20260502065044 | 80 | 213 | 1.0 | 5.0 | 0.00 | 0.00 | 0.00 | 84 | 1010.7 |
| 20260502064542 | 80 | 184 | 1.0 | 5.0 | 0.00 | 0.00 | 0.00 | 84 | 1010.7 |
| 20260502064039 | 80 | 158 | 0.0 | 4.0 | 0.00 | 0.00 | 0.00 | 84 | 1010.8 |
| 20260502063539 | 80 | 17 | 0.0 | 3.0 | 0.00 | 0.00 | 0.00 | 84 | 1010.8 |
| 20260502063036 | 80 | 134 | 1.0 | 5.0 | 0.00 | 0.00 | 0.00 | 84 | 1011.0 |
| 20260502062534 | 80 | 187 | 1.0 | 5.0 | 0.00 | 0.00 | 0.00 | 84 | 1011.0 |
| 20260502062029 | 80 | 172 | 1.0 | 5.0 | 0.00 | 0.00 | 0.00 | 84 | 1011.0 |
| 20260502061530 | 79 | 174 | 1.0 | 5.0 | 0.00 | 0.00 | 0.00 | 85 | 1011.0 |
| 20260502061029 | 79 | 160 | 0.0 | 3.0 | 0.00 | 0.00 | 0.00 | 85 | 1011.0 |
| 20260502060029 | 79 | 219 | 1.0 | 4.0 | 0.00 | 0.00 | 0.00 | 84 | 1011.0 |
| 20260502055017 | 79 | 136 | 1.0 | 4.0 | 0.00 | 0.00 | 0.00 | 84 | 1010.9 |
| 20260502054513 | 79 | 148 | 1.0 | 3.0 | 0.00 | 0.00 | 0.00 | 85 | 1011.0 |
| 20260502054011 | 79 | 142 | 0.0 | 3.0 | 0.00 | 0.00 | 0.00 | 84 | 1011.1 |
| 20260502053511 | 79 | 167 | 0.0 | 3.0 | 0.00 | 0.00 | 0.00 | 84 | 1011.0 |
| 20260502053011 | 79 | 135 | 0.0 | 3.0 | 0.00 | 0.00 | 0.00 | 84 | 1011.1 |
| 20260502052510 | 79 | 210 | 1.0 | 4.0 | 0.00 | 0.00 | 0.00 | 85 | 1011.1 |
| 20260502052010 | 79 | 119 | 0.0 | 4.0 | 0.00 | 0.00 | 0.00 | 85 | 1011.1 |
| 20260502051507 | 79 | 150 | 0.0 | 4.0 | 0.00 | 0.00 | 0.00 | 84 | 1011.2 |
| 20260502051007 | 78 | 175 | 0.0 | 4.0 | 0.00 | 0.00 | 0.00 | 84 | 1011.3 |
| 20260502050503 | 78 | 180 | 0.0 | 3.0 | 0.00 | 0.00 | 0.00 | 84 | 1011.4 |
| 20260502045003 | 78 | 174 | 0.0 | 3.0 | 0.00 | 0.00 | 0.00 | 83 | 1011.7 |
| 20260502044504 | 77 | 160 | 0.0 | 2.0 | 0.00 | 0.00 | 0.00 | 82 | 1011.6 |
| 20260502044004 | 77 | 139 | 0.0 | 1.0 | 0.00 | 0.00 | 0.00 | 81 | 1011.6 |
| 20260502043502 | 77 | 167 | 0.0 | 1.0 | 0.00 | 0.00 | 0.00 | 81 | 1011.6 |
| 20260502043001 | 76 | 140 | 0.0 | 0.0 | 0.00 | 0.00 | 0.00 | 80 | 1011.7 |
| 20260502042501 | 76 | 154 | 0.0 | 0.0 | 0.00 | 0.00 | 0.00 | 80 | 1011.8 |
| 20260502042002 | 76 | 179 | 0.0 | 0.0 | 0.00 | 0.00 | 0.00 | 81 | 1011.8 |
| 20260502041501 | 76 | 179 | 0.0 | 0.0 | 0.00 | 0.00 | 0.00 | 82 | 1011.8 |
| 20260502041001 | 76 | 179 | 0.0 | 0.0 | 0.00 | 0.00 | 0.00 | 82 | 1011.8 |
| 20260502040500 | 76 | 179 | 0.0 | 0.0 | 0.00 | 0.00 | 0.00 | 83 | 1011.8 |
| 20260502040002 | 76 | 179 | 0.0 | 0.0 | 0.00 | 0.00 | 0.00 | 83 | 1011.8 |
| 20260502035002 | 77 | 179 | 0.0 | 0.0 | 0.00 | 0.00 | 0.00 | 84 | 1011.9 |
| 20260502034003 | 77 | 179 | 0.0 | 0.0 | 0.00 | 0.00 | 0.00 | 84 | 1011.8 |
| 20260502033502 | 77 | 179 | 0.0 | 0.0 | 0.00 | 0.00 | 0.00 | 85 | 1011.7 |
| 20260502032501 | 78 | 179 | 0.0 | 0.0 | 0.00 | 0.00 | 0.00 | 85 | 1011.8 |
| 20260502032002 | 78 | 179 | 0.0 | 0.0 | 0.00 | 0.00 | 0.00 | 85 | 1011.7 |
| 20260502031502 | 78 | 179 | 0.0 | 0.0 | 0.00 | 0.00 | 0.00 | 84 | 1011.8 |
| 20260502031000 | 79 | 179 | 0.0 | 0.0 | 0.00 | 0.00 | 0.00 | 84 | 1011.8 |
| 20260502030502 | 79 | 179 | 0.0 | 0.0 | 0.00 | 0.00 | 0.00 | 84 | 1011.8 |
| 20260502030001 | 79 | 179 | 0.0 | 1.0 | 0.00 | 0.00 | 0.00 | 83 | 1011.8 |
| 20260502025502 | 80 | 169 | 0.0 | 1.0 | 0.00 | 0.00 | 0.00 | 83 | 1011.7 |
| 20260502025001 | 80 | 157 | 0.0 | 2.0 | 0.00 | 0.00 | 0.00 | 83 | 1011.6 |